[[{"header":{"parameterUnit":"m.s-1","parameterCategory":1,"la1":30.2991,"la2":30.254,"lo1":-89.0895,"lo2":-89.0444,"dy":0.0017,"dx":0.0017,"nx":28,"ny":28,"refTime":"2023-10-31T21:00:00:Z","depth":0,"parameterNumber":2,"parameterNumberName":"U-component_of_WINDS"},"data":[0,0,0,0,0,0,0,0,0,0,0,0,0,0,0,0,0,0,0,0,0,0,0,0,0,0,0,0,0,0,0,0,0,0,0,0,0,0,0,0,0,0,0,0,0,0,0,0,0,0,0,0,0,0,0,0,0,0,1.2471,1.2471,0,1.2468,1.2468,1.2468,1.246,1.246,1.246,1.246,1.2457,1.2457,1.2457,0,0,0,0,0,0,0,0,0,0,0,0,0,1.2469,1.2469,1.2471,1.2471,1.2471,1.2468,1.2468,1.2468,1.246,1.246,1.246,1.246,1.2457,1.2457,1.2457,0,0,0,0,0,0,0,0,0,0,0,0,0,1.2469,1.2469,1.2471,1.2467,1.2466,1.2468,1.2468,1.2468,1.2461,1.246,1.246,1.246,1.2457,1.2457,1.2457,1.2463,0,0,1.2457,1.2458,0,0,0,0,0,0,0,0,1.2469,1.2469,1.2467,1.2467,1.2467,1.2464,1.2467,1.2467,1.2461,1.2463,1.246,1.246,1.246,1.2459,1.246,1.2463,1.2463,1.2457,1.2458,1.2458,1.2458,0,0,0,0,0,0,0,1.2469,1.2469,1.247,1.2467,1.2467,1.2465,1.2465,1.2467,1.2463,1.2462,1.2462,1.2462,1.2459,1.2459,1.2459,1.2463,1.2457,1.2458,1.2458,1.2458,1.2471,1.2471,0,0,0,0,0,0,1.2469,1.2469,1.247,1.247,1.2467,1.2465,1.2465,1.2465,1.2463,1.2462,1.2462,1.2461,1.2459,1.2459,1.2459,1.2466,1.2458,1.2458,1.2458,1.2471,1.2471,1.2472,0,0,0,0,0,0,1.2469,1.247,1.247,1.2469,1.2469,1.2465,1.2466,1.2465,1.2466,1.2462,1.2461,1.2463,1.2459,1.2459,1.2462,1.2466,1.2458,1.2458,1.2471,1.2471,1.2471,1.248,0,0,0,0,0,0,1.2469,1.247,1.2472,1.2469,1.2469,1.2473,1.2466,1.2466,1.2466,1.2465,1.2463,1.2462,1.2459,1.2462,1.2462,1.2466,1.2458,1.247,1.2471,1.2471,1.2479,1.248,1.2481,0,0,0,0,0,1.2469,1.2474,1.2472,1.2472,1.2472,1.2473,1.2473,1.247,1.2466,1.2468,1.2466,1.2462,1.2466,1.2463,1.2463,1.2466,1.247,1.2471,1.2471,1.2479,1.248,1.2481,0,0,0,0,0,0,1.2477,1.2474,1.2471,1.2475,1.2475,1.2472,1.2474,1.2471,1.2471,1.2471,1.2466,1.2466,1.247,1.2468,1.2465,1.2472,1.2467,1.2468,1.2473,1.2474,1.2475,1.2475,1.2458,0,0,0,0,0,1.2479,1.248,1.2478,1.2481,1.2481,1.2478,1.2478,1.2476,1.2475,1.2475,1.2473,1.2472,1.2473,1.2474,1.2474,1.2479,1.2479,1.2482,1.2483,1.2484,1.2484,1.2487,1.2489,1.2474,1.2474,1.2474,0,0,1.2483,1.2482,1.2483,1.2483,1.2482,1.2484,1.2478,1.248,1.2481,1.2475,1.2478,1.2476,1.2475,1.2479,1.2481,1.2479,1.2489,1.2485,1.2486,1.2486,1.2488,1.2489,1.2491,1.2474,1.2474,1.2474,0,0,1.2491,1.2491,1.2494,1.2493,1.2492,1.249,1.2491,1.2489,1.2488,1.2491,1.2487,1.2488,1.249,1.2489,1.2489,1.2499,1.2495,1.2499,1.2505,1.2508,1.2509,1.251,1.2513,1.2514,1.25,1.25,1.25,0,1.2497,1.2499,1.2496,1.2498,1.2498,1.2494,1.2497,1.2496,1.2496,1.2496,1.2493,1.2496,1.2494,1.2498,1.2501,1.2501,1.2502,1.2499,1.2509,1.251,1.2511,1.2514,1.2515,1.25,1.25,1.25,1.25,0,1.2506,1.2508,1.251,1.251,1.2511,1.2513,1.2511,1.2512,1.2509,1.2508,1.2511,1.2509,1.251,1.2511,1.2508,1.2515,1.2513,1.251,1.2504,1.2513,1.2515,1.2517,1.2501,1.2501,1.25,1.25,0,0,1.2518,1.2516,1.2517,1.2517,1.2516,1.2518,1.252,1.2521,1.2522,1.2522,1.2524,1.2526,1.2523,1.2523,1.2521,1.2523,1.2531,1.252,1.252,1.2521,1.2538,1.254,1.2541,1.2529,1.2529,1.2529,1.2538,0,1.2526,1.253,1.2528,1.2533,1.2534,1.253,1.2533,1.2532,1.2531,1.2532,1.2531,1.2532,1.2529,1.2529,1.2531,1.2529,1.2534,1.2529,1.253,1.253,1.253,1.2543,1.2545,1.2553,1.2539,1.2539,1.2539,0,1.2535,1.2536,1.2541,1.254,1.2541,1.2543,1.2544,1.2545,1.2545,1.2544,1.2544,1.2541,1.2544,1.254,1.2543,1.254,1.2541,1.254,1.2541,1.254,1.2535,1.2542,1.2555,1.2556,1.2541,1.2541,1.254,0,1.2543,1.2545,1.2549,1.2549,1.2548,1.255,1.255,1.2549,1.255,1.2551,1.2551,1.2552,1.2552,1.2553,1.2551,1.2548,1.2555,1.255,1.2554,1.2554,1.2555,1.2555,1.2569,1.2557,1.2557,1.2557,1.2557,0,1.2552,1.2555,1.2553,1.2555,1.2558,1.2556,1.2559,1.2559,1.2558,1.256,1.2557,1.2559,1.2556,1.2558,1.2556,1.2559,1.256,1.2559,1.2558,1.2559,1.2559,1.2559,1.2558,1.2557,1.2557,1.2557,1.2557,0,1.2561,1.2559,1.2563,1.2562,1.2562,1.2565,1.2564,1.2566,1.2565,1.2567,1.2568,1.2566,1.2568,1.2566,1.2567,1.2566,1.2571,1.257,1.2571,1.257,1.2574,1.2574,1.2588,1.2589,1.2577,1.2577,1.2577,0,1.2566,1.2569,1.2569,1.257,1.257,1.2572,1.2572,1.257,1.2571,1.2572,1.2574,1.2575,1.2576,1.258,1.2578,1.258,1.2578,1.2583,1.2578,1.2579,1.2578,1.2578,1.2578,1.2584,1.2584,1.2584,1.2584,0,1.2576,1.2575,1.2577,1.2578,1.2579,1.258,1.2581,1.2582,1.258,1.2581,1.2583,1.2584,1.2586,1.2588,1.2589,1.2589,1.2586,1.2586,1.2587,1.2587,1.2588,1.2587,1.2573,1.2585,1.2585,1.2585,1.2585,1.2585,1.2583,1.2585,1.2586,1.2587,1.2588,1.2589,1.2591,1.259,1.2592,1.2593,1.2592,1.2594,1.2595,1.2596,1.2596,1.2598,1.2596,1.2597,1.2598,1.2598,1.2598,1.2588,1.2598,1.2598,1.2598,1.2598,1.2598,0,1.2592,1.2593,1.2594,1.2596,1.2597,1.2595,1.2596,1.2597,1.26,1.26,1.2602,1.2604,1.2606,1.2605,1.2607,1.2609,1.2607,1.2609,1.2609,1.2609,1.26,1.2599,1.261,1.261,1.261,1.261,1.261,1.261,1.2597,1.2601,1.26,1.2604,1.2604,1.2607,1.2607,1.2608,1.2609,1.2612,1.2613,1.2613,1.2613,1.2615,1.2617,1.2616,1.2617,1.2619,1.2618,1.261,1.2609,1.2608,1.2607,1.2619,1.2619,1.2627,1.2627,1.2627]},{"header":{"parameterUnit":"m.s-1","parameterCategory":1,"la1":30.2991,"la2":30.254,"lo1":-89.0895,"lo2":-89.0444,"dy":0.0017,"dx":0.0017,"nx":28,"ny":28,"refTime":"2023-10-31T21:00:00:Z","depth":0,"parameterNumber":3,"parameterNumberName":"V-component_of_WINDS"},"data":[0,0,0,0,0,0,0,0,0,0,0,0,0,0,0,0,0,0,0,0,0,0,0,0,0,0,0,0,0,0,0,0,0,0,0,0,0,0,0,0,0,0,0,0,0,0,0,0,0,0,0,0,0,0,0,0,0,0,-8.1269,-8.127,0,-8.1391,-8.1393,-8.1394,-8.1355,-8.1353,-8.135,-8.1348,-8.1465,-8.147,-8.1476,0,0,0,0,0,0,0,0,0,0,0,0,0,-8.0995,-8.1,-8.1269,-8.127,-8.1272,-8.1391,-8.1393,-8.1394,-8.1356,-8.1353,-8.1349,-8.1347,-8.1463,-8.147,-8.1476,0,0,0,0,0,0,0,0,0,0,0,0,0,-8.1115,-8.1002,-8.1268,-8.1267,-8.1268,-8.1391,-8.1393,-8.1395,-8.1356,-8.1353,-8.1349,-8.1345,-8.1461,-8.1469,-8.1477,-8.1606,0,0,-8.1503,-8.1506,0,0,0,0,0,0,0,0,-8.1108,-8.1125,-8.1266,-8.1267,-8.1269,-8.1354,-8.1339,-8.1465,-8.1357,-8.1323,-8.1348,-8.1343,-8.1431,-8.1441,-8.1473,-8.1611,-8.1616,-8.1503,-8.1508,-8.1512,-8.1514,0,0,0,0,0,0,0,-8.11,-8.112,-8.1317,-8.1268,-8.127,-8.1258,-8.1271,-8.1363,-8.1397,-8.1325,-8.1323,-8.1338,-8.1431,-8.1465,-8.1475,-8.1618,-8.1503,-8.1511,-8.1516,-8.1519,-8.1871,-8.1875,0,0,0,0,0,0,-8.1092,-8.1113,-8.1313,-8.132,-8.1178,-8.1266,-8.1281,-8.1331,-8.1396,-8.1402,-8.1342,-8.1336,-8.1452,-8.1465,-8.1479,-8.1636,-8.1512,-8.152,-8.1524,-8.1866,-8.1872,-8.1876,0,0,0,0,0,0,-8.1086,-8.111,-8.1308,-8.1216,-8.1241,-8.1275,-8.1332,-8.1335,-8.1369,-8.1408,-8.1413,-8.137,-8.145,-8.1467,-8.1576,-8.1639,-8.1523,-8.1531,-8.1861,-8.1868,-8.1874,-8.1949,0,0,0,0,0,0,-8.1078,-8.1108,-8.1159,-8.1218,-8.1246,-8.1405,-8.1335,-8.134,-8.1384,-8.1378,-8.1436,-8.1442,-8.1448,-8.1564,-8.1584,-8.1648,-8.1537,-8.1856,-8.1864,-8.1872,-8.1941,-8.1957,-8.1971,0,0,0,0,0,-8.1069,-8.1173,-8.1162,-8.1186,-8.131,-8.1409,-8.1424,-8.1431,-8.1389,-8.144,-8.1465,-8.144,-8.1629,-8.1575,-8.1598,-8.1665,-8.1852,-8.1862,-8.1871,-8.1934,-8.1954,-8.1971,0,0,0,0,0,0,-8.1117,-8.118,-8.1169,-8.1295,-8.1347,-8.1402,-8.1466,-8.1452,-8.1515,-8.1506,-8.151,-8.1523,-8.1635,-8.166,-8.16,-8.1794,-8.1734,-8.1749,-8.1774,-8.1793,-8.1808,-8.18,-8.1544,0,0,0,0,0,-8.1143,-8.122,-8.127,-8.1377,-8.1404,-8.1431,-8.1474,-8.1475,-8.1528,-8.1549,-8.1582,-8.1632,-8.1703,-8.1749,-8.1816,-8.1944,-8.1957,-8.2002,-8.2017,-8.2029,-8.2042,-8.2114,-8.2135,-8.1909,-8.1909,-8.1908,0,0,-8.1196,-8.124,-8.1288,-8.1388,-8.1428,-8.1507,-8.1449,-8.1533,-8.1591,-8.156,-8.1667,-8.1693,-8.1749,-8.1869,-8.1923,-8.1893,-8.2108,-8.2042,-8.2051,-8.2058,-8.2126,-8.2147,-8.2166,-8.1915,-8.1914,-8.1913,0,0,-8.1333,-8.1374,-8.1469,-8.1512,-8.1575,-8.1593,-8.1616,-8.1673,-8.1691,-8.1798,-8.1777,-8.1844,-8.1965,-8.2007,-8.2044,-8.22,-8.218,-8.2221,-8.23,-8.237,-8.2388,-8.2404,-8.2461,-8.2481,-8.2234,-8.2234,-8.2234,0,-8.139,-8.151,-8.1519,-8.1607,-8.1651,-8.1631,-8.1726,-8.1766,-8.1847,-8.1877,-8.1844,-8.1998,-8.2033,-8.2164,-8.2202,-8.2232,-8.2258,-8.2215,-8.2385,-8.2401,-8.2416,-8.247,-8.2491,-8.2239,-8.2238,-8.2238,-8.2237,0,-8.1578,-8.1662,-8.173,-8.1813,-8.1865,-8.1956,-8.1977,-8.2028,-8.2025,-8.2046,-8.2155,-8.2198,-8.2275,-8.2305,-8.2302,-8.2436,-8.2416,-8.2384,-8.2323,-8.2442,-8.2493,-8.2514,-8.2246,-8.2244,-8.2243,-8.2241,0,0,-8.1748,-8.1838,-8.1863,-8.1901,-8.197,-8.2034,-8.2123,-8.2202,-8.2246,-8.2302,-8.2378,-8.2482,-8.2454,-8.2496,-8.2497,-8.2558,-8.2681,-8.2518,-8.252,-8.2548,-8.2832,-8.2857,-8.2881,-8.2668,-8.2671,-8.2675,-8.2828,0,-8.1893,-8.2055,-8.2066,-8.2212,-8.2289,-8.2271,-8.2349,-8.24,-8.2422,-8.2489,-8.2511,-8.2586,-8.2542,-8.2568,-8.2628,-8.2653,-8.2738,-8.2642,-8.2737,-8.274,-8.2725,-8.2908,-8.2934,-8.3077,-8.2848,-8.2851,-8.2854,0,-8.2083,-8.215,-8.2305,-8.2366,-8.2398,-8.2469,-8.2543,-8.2607,-8.2663,-8.2675,-8.2724,-8.2717,-8.2808,-8.2744,-8.2869,-8.2804,-8.2843,-8.2861,-8.2867,-8.2877,-8.2805,-8.2923,-8.3122,-8.3144,-8.2885,-8.2883,-8.288,0,-8.2195,-8.2322,-8.2432,-8.2465,-8.2538,-8.2589,-8.2621,-8.2674,-8.2721,-8.2784,-8.2814,-8.2886,-8.2925,-8.298,-8.2992,-8.2944,-8.3118,-8.3054,-8.3129,-8.3129,-8.3167,-8.3165,-8.3376,-8.319,-8.319,-8.319,-8.3189,0,-8.2356,-8.2451,-8.2484,-8.2551,-8.2657,-8.2668,-8.2772,-8.2801,-8.2849,-8.292,-8.2907,-8.2974,-8.2985,-8.3054,-8.3064,-8.3167,-8.3184,-8.3195,-8.3197,-8.3198,-8.3196,-8.3224,-8.3215,-8.3195,-8.3194,-8.3193,-8.3192,0,-8.2498,-8.2523,-8.2642,-8.2703,-8.2721,-8.2796,-8.2847,-8.2911,-8.2932,-8.3023,-8.3045,-8.3077,-8.3158,-8.3176,-8.327,-8.3277,-8.34,-8.339,-8.3382,-8.3381,-8.3456,-8.345,-8.3693,-8.3726,-8.3518,-8.352,-8.3522,0,-8.26,-8.2673,-8.2744,-8.2793,-8.2829,-8.2906,-8.2955,-8.2969,-8.302,-8.3091,-8.3147,-8.3227,-8.3292,-8.3421,-8.3452,-8.3524,-8.3517,-8.3598,-8.3528,-8.3527,-8.352,-8.3517,-8.3525,-8.3611,-8.3614,-8.3616,-8.3617,0,-8.2778,-8.2788,-8.2861,-8.2939,-8.2999,-8.306,-8.3118,-8.3158,-8.3179,-8.3237,-8.3322,-8.3373,-8.3471,-8.3551,-8.3624,-8.3655,-8.364,-8.3639,-8.366,-8.3662,-8.3655,-8.3662,-8.342,-8.3633,-8.3632,-8.363,-8.363,-8.3629,-8.2904,-8.297,-8.3031,-8.3113,-8.3159,-8.3214,-8.3279,-8.3309,-8.3381,-8.3465,-8.3468,-8.356,-8.3615,-8.3713,-8.3748,-8.3819,-8.3794,-8.3824,-8.3832,-8.384,-8.3848,-8.3643,-8.3832,-8.3831,-8.3831,-8.3831,-8.383,0,-8.3084,-8.3123,-8.3199,-8.3283,-8.3347,-8.333,-8.3394,-8.3449,-8.3531,-8.3585,-8.3651,-8.3748,-8.3826,-8.3864,-8.394,-8.399,-8.3985,-8.4009,-8.4006,-8.4014,-8.3865,-8.384,-8.4012,-8.4012,-8.4012,-8.4012,-8.4012,-8.4012,-8.3185,-8.3297,-8.3314,-8.3447,-8.3484,-8.3578,-8.3616,-8.3667,-8.371,-8.3821,-8.3887,-8.3912,-8.396,-8.404,-8.411,-8.4119,-8.4148,-8.4177,-8.4182,-8.4043,-8.4024,-8.4006,-8.3983,-8.4182,-8.4183,-8.4325,-8.4326,-8.4327]}]]